Location: Seattle
(47.6064°N, 122.3308°W)
Time: 02:45:59
(UTC-08:00)

A-11 Canister half - Pass Details

Date: 04 December 2020
Orbit: 1524 x 1684 km, 47.3° (Epoch: 21 January)

Event Time Altitude Azimuth Distance (km) Brightness Sun altitude
Rises 11:07:52 0° 291° (WNW) 4,906 11.3 19.1°
Reaches altitude 10° 11:11:22 10° 284° (WNW) 3,897 10.9 19.2°
Maximum altitude 11:20:03 36° 223° (SW) 2,352 10.7 19.4°
Drops below altitude 10° 11:28:29 10° 161° (SSE) 3,772 13.1 19.7°
Sets 11:31:50 0° 153° (SSE) 4,732 12.8 19.7°
